TimeCDT,TemperatureF,Dew PointF,Humidity,Sea Level PressureIn,VisibilityMPH,Wind Direction,Wind SpeedMPH,Gust SpeedMPH,PrecipitationIn,Events,Conditions,WindDirDegrees,DateUTC
12:54 AM,43.0,33.1,68,30.25,10.0,NE,10.4,-,N/A,,Overcast,50,2013-04-17 05:54:00
1:54 AM,43.0,33.1,68,30.24,10.0,ENE,8.1,-,N/A,,Overcast,60,2013-04-17 06:54:00
2:54 AM,43.0,33.1,68,30.23,10.0,ENE,10.4,-,N/A,,Overcast,70,2013-04-17 07:54:00
3:54 AM,43.0,32.0,65,30.19,10.0,East,15.0,-,N/A,,Overcast,80,2013-04-17 08:54:00
4:54 AM,43.0,33.1,68,30.19,10.0,East,12.7,-,N/A,,Overcast,100,2013-04-17 09:54:00
5:54 AM,43.0,36.0,76,30.18,10.0,East,10.4,-,0.00,Rain,Light Rain,100,2013-04-17 10:54:00
6:23 AM,42.8,37.4,81,30.16,4.0,ESE,17.3,-,0.04,Rain-Thunderstorm,Heavy Rain,110,2013-04-17 11:23:00
6:38 AM,41.0,37.4,87,30.14,4.0,East,17.3,-,0.10,Rain,Rain,100,2013-04-17 11:38:00
6:54 AM,41.0,37.9,89,30.15,6.0,East,13.8,-,0.14,Rain,Light Rain,100,2013-04-17 11:54:00
7:54 AM,41.0,37.9,89,30.14,10.0,East,12.7,-,0.06,,Overcast,90,2013-04-17 12:54:00
8:54 AM,41.0,35.6,81,30.12,10.0,East,11.5,20.7,N/A,,Partly Cloudy,100,2013-04-17 13:54:00
9:34 AM,39.2,35.6,87,30.11,7.0,ENE,12.7,-,0.01,Rain-Thunderstorm,Rain,70,2013-04-17 14:34:00
9:49 AM,39.2,35.6,87,30.08,4.0,ENE,12.7,-,0.04,Rain,Rain,70,2013-04-17 14:49:00
9:54 AM,39.0,37.0,93,30.11,4.0,ENE,12.7,-,0.06,Rain,Rain,70,2013-04-17 14:54:00
10:24 AM,39.2,37.4,93,30.13,3.0,East,11.5,-,0.13,Rain-Thunderstorm,Rain,90,2013-04-17 15:24:00
10:39 AM,39.2,37.4,93,30.13,3.0,East,10.4,-,0.21,Rain,Heavy Rain,100,2013-04-17 15:39:00
10:41 AM,39.2,37.4,93,30.12,2.5,East,9.2,-,0.22,Rain-Thunderstorm,Heavy Rain,100,2013-04-17 15:41:00
10:54 AM,39.0,37.0,93,30.15,3.0,East,6.9,-,0.31,Rain-Thunderstorm,Rain,80,2013-04-17 15:54:00
11:10 AM,39.2,37.4,93,30.13,2.5,ENE,9.2,-,0.08,Rain-Thunderstorm,Heavy Thunderstorms and Rain,60,2013-04-17 16:10:00
11:14 AM,39.2,37.4,93,30.13,2.5,NE,10.4,-,0.11,Rain,Heavy Rain,40,2013-04-17 16:14:00
11:26 AM,39.2,37.4,93,30.14,2.5,North,8.1,-,0.17,Rain,Rain,10,2013-04-17 16:26:00
11:29 AM,39.2,37.4,93,30.13,3.0,NE,9.2,-,0.18,Rain,Rain,40,2013-04-17 16:29:00
11:46 AM,39.2,37.4,93,30.14,4.0,ENE,6.9,-,0.23,Rain-Thunderstorm,Thunderstorms and Rain,60,2013-04-17 16:46:00
11:54 AM,39.0,37.9,96,30.16,5.0,ENE,8.1,-,0.26,Rain-Thunderstorm,Light Thunderstorms and Rain,70,2013-04-17 16:54:00
12:09 PM,39.2,37.4,93,30.10,4.0,ENE,16.1,-,0.04,Rain,Rain,70,2013-04-17 17:09:00
12:21 PM,39.2,37.4,93,30.00,4.0,East,26.5,32.2,0.06,Rain,Light Rain,90,2013-04-17 17:21:00
12:31 PM,39.2,37.4,93,29.88,3.0,East,36.8,47.2,0.06,Rain-Thunderstorm,Thunderstorms and Rain,80,2013-04-17 17:31:00
12:46 PM,39.2,37.4,93,29.89,10.0,East,27.6,40.3,0.09,Rain,Light Rain,100,2013-04-17 17:46:00
12:54 PM,39.9,37.9,93,29.86,10.0,East,31.1,42.6,0.09,,Mostly Cloudy,100,2013-04-17 17:54:00
1:41 PM,41.0,37.4,87,29.88,10.0,East,21.9,29.9,N/A,,Mostly Cloudy,80,2013-04-17 18:41:00
1:54 PM,41.0,39.0,93,29.89,10.0,ENE,19.6,26.5,N/A,,Mostly Cloudy,70,2013-04-17 18:54:00
2:54 PM,42.1,39.0,89,30.00,10.0,SE,9.2,-,0.01,,Overcast,130,2013-04-17 19:54:00
3:54 PM,42.1,39.9,92,29.91,10.0,NE,12.7,-,0.00,,Overcast,50,2013-04-17 20:54:00
4:54 PM,42.1,39.9,92,29.84,10.0,NE,21.9,27.6,0.00,,Overcast,50,2013-04-17 21:54:00
5:54 PM,42.1,39.9,92,29.82,7.0,ENE,15.0,24.2,0.00,,Overcast,70,2013-04-17 22:54:00
6:54 PM,42.1,41.0,96,29.84,5.0,ENE,9.2,-,0.03,Rain,Light Rain,70,2013-04-17 23:54:00
7:54 PM,43.0,41.0,93,29.83,5.0,NE,10.4,-,0.08,Rain,Light Rain,50,2013-04-18 00:54:00
8:20 PM,42.8,41.0,93,29.79,5.0,ENE,12.7,-,0.07,Rain,Rain,60,2013-04-18 01:20:00
8:32 PM,42.8,41.0,93,29.81,4.0,ENE,9.2,-,0.13,Rain,Rain,60,2013-04-18 01:32:00
8:41 PM,42.8,41.0,93,29.92,2.5,West,13.8,33.4,0.17,Rain,Heavy Rain,270,2013-04-18 01:41:00
8:54 PM,43.0,42.1,97,29.91,3.0,NW,9.2,-,0.30,Rain,Rain,320,2013-04-18 01:54:00
8:57 PM,42.8,41.0,93,29.89,3.0,NW,11.5,-,0.02,Rain,Rain,320,2013-04-18 01:57:00
9:54 PM,42.1,41.0,96,29.86,7.0,East,9.2,-,0.16,Rain,Light Rain,80,2013-04-18 02:54:00
10:51 PM,42.8,41.0,93,29.66,8.0,East,26.5,32.2,0.12,Rain-Thunderstorm,Light Thunderstorms and Rain,100,2013-04-18 03:51:00
10:54 PM,42.1,41.0,96,29.66,9.0,East,26.5,32.2,0.12,Rain-Thunderstorm,Light Thunderstorms and Rain,100,2013-04-18 03:54:00
11:06 PM,42.8,41.0,93,29.56,10.0,East,32.2,39.1,0.00,Rain,Light Rain,100,2013-04-18 04:06:00
11:18 PM,42.8,42.8,100,29.61,10.0,ESE,18.4,36.8,0.00,,Mostly Cloudy,120,2013-04-18 04:18:00
11:36 PM,44.6,42.8,93,29.65,10.0,NNE,9.2,-,0.00,,Mostly Cloudy,30,2013-04-18 04:36:00
11:54 PM,44.1,42.1,93,29.68,10.0,North,12.7,-,0.00,,Overcast,360,2013-04-18 04:54:00